| time (UTC) | temp F | wind direction | speed knots | gust knots | rain 1hr in | rain 24hr in | rain mn in | humidity % | barometer mb |
| 20260903022517 | 75 | 135 | 1.7 | 2.6 | 0.00 | 0.81 | 0.78 | 92 | 1010.8 |
| 20260903021537 | 75 | 135 | 1.7 | 2.6 | 0.00 | 0.81 | 0.78 | 91 | 1010.8 |
| 20260903020517 | 76 | 135 | 1.7 | 3.5 | 0.00 | 0.81 | 0.78 | 91 | 1010.9 |
| 20260903015517 | 76 | 135 | 2.6 | 3.5 | 0.00 | 0.81 | 0.78 | 91 | 1010.7 |
| 20260903014517 | 76 | 135 | 1.7 | 2.6 | 0.00 | 0.81 | 0.78 | 91 | 1010.6 |
| 20260903013537 | 76 | 135 | 1.7 | 2.6 | 0.00 | 0.81 | 0.78 | 90 | 1010.6 |
| 20260903012517 | 77 | 135 | 1.7 | 2.6 | 0.00 | 0.81 | 0.78 | 90 | 1010.4 |
| 20260903011517 | 77 | 135 | 2.6 | 3.5 | 0.00 | 0.81 | 0.78 | 89 | 1010.3 |
| 20260903010517 | 77 | 135 | 1.7 | 2.6 | 0.00 | 0.81 | 0.78 | 87 | 1010.3 |
| 20260903005517 | 78 | 135 | 2.6 | 3.5 | 0.00 | 0.81 | 0.78 | 87 | 1010.1 |
| 20260903004517 | 79 | 135 | 1.7 | 2.6 | 0.00 | 0.81 | 0.78 | 85 | 1010.4 |
| 20260903003537 | 80 | 135 | 1.7 | 2.6 | 0.00 | 0.81 | 0.78 | 83 | 1010.5 |
| 20260903002537 | 81 | 135 | 1.7 | 3.5 | 0.00 | 0.81 | 0.78 | 80 | 1010.5 |
| 20260903001517 | 82 | 135 | 2.6 | 3.5 | 0.00 | 0.81 | 0.78 | 79 | 1010.6 |
| 20260903000517 | 83 | 135 | 2.6 | 6.1 | 0.00 | 0.81 | 0.78 | 77 | 1010.7 |
| 20260902235517 | 84 | 135 | 2.6 | 4.3 | 0.00 | 0.81 | 0.78 | 76 | 1010.8 |
| 20260902234557 | 84 | 135 | 2.6 | 6.1 | 0.00 | 0.81 | 0.78 | 75 | 1010.6 |
| 20260902233537 | 85 | 135 | 2.6 | 6.1 | 0.00 | 0.81 | 0.78 | 73 | 1010.6 |
| 20260902232516 | 85 | 135 | 4.3 | 6.1 | 0.00 | 0.81 | 0.78 | 73 | 1010.6 |
| 20260902231516 | 86 | 135 | 3.5 | 7.0 | 0.00 | 0.81 | 0.78 | 71 | 1010.7 |
| 20260902230517 | 86 | 158 | 3.5 | 6.1 | 0.00 | 0.81 | 0.78 | 71 | 1010.8 |
| 20260902225516 | 87 | 135 | 4.3 | 7.8 | 0.00 | 0.81 | 0.78 | 68 | 1010.8 |
| 20260902224517 | 87 | 135 | 3.5 | 7.8 | 0.00 | 0.81 | 0.78 | 69 | 1010.8 |
| 20260902223516 | 87 | 158 | 4.3 | 7.0 | 0.00 | 0.81 | 0.78 | 66 | 1010.8 |
| 20260902222516 | 87 | 180 | 5.2 | 8.7 | 0.00 | 0.81 | 0.78 | 67 | 1010.9 |
| 20260902221516 | 88 | 158 | 5.2 | 9.6 | 0.00 | 0.81 | 0.78 | 66 | 1010.9 |
| 20260902220516 | 88 | 180 | 3.5 | 7.0 | 0.00 | 0.81 | 0.78 | 65 | 1011.0 |
| 20260902215516 | 88 | 180 | 6.1 | 8.7 | 0.00 | 0.81 | 0.78 | 63 | 1011.0 |
| 20260902214516 | 88 | 158 | 6.1 | 9.6 | 0.00 | 0.81 | 0.78 | 63 | 1011.0 |
| 20260902213516 | 88 | 203 | 5.2 | 8.7 | 0.00 | 0.81 | 0.78 | 63 | 1011.0 |
| 20260902212517 | 88 | 180 | 5.2 | 8.7 | 0.00 | 0.81 | 0.78 | 65 | 1011.1 |
| 20260902211516 | 88 | 158 | 4.3 | 8.7 | 0.00 | 0.81 | 0.78 | 70 | 1011.3 |
| 20260902210516 | 88 | 113 | 1.7 | 5.2 | 0.00 | 0.81 | 0.78 | 71 | 1011.2 |
| 20260902205516 | 87 | 135 | 3.5 | 6.1 | 0.00 | 0.81 | 0.78 | 71 | 1011.4 |
| 20260902204517 | 87 | 135 | 1.7 | 3.5 | 0.00 | 0.81 | 0.78 | 71 | 1011.4 |
| 20260902203516 | 87 | 158 | 3.5 | 7.0 | 0.00 | 0.81 | 0.78 | 71 | 1011.6 |
| 20260902202516 | 86 | 180 | 1.7 | 5.2 | 0.00 | 0.81 | 0.78 | 70 | 1011.5 |
| 20260902201516 | 87 | 180 | 4.3 | 7.8 | 0.00 | 0.81 | 0.78 | 72 | 1011.6 |
| 20260902200516 | 85 | 225 | 0.9 | 2.6 | 0.00 | 0.81 | 0.78 | 72 | 1011.6 |
| 20260902195516 | 85 | 158 | 3.5 | 5.2 | 0.00 | 0.81 | 0.78 | 73 | 1011.9 |
| 20260902194516 | 86 | 203 | 2.6 | 4.3 | 0.00 | 0.81 | 0.78 | 71 | 1012.0 |
| 20260902193516 | 85 | 180 | 1.7 | 2.6 | 0.00 | 0.81 | 0.78 | 72 | 1012.1 |
| 20260902192516 | 84 | 225 | 1.7 | 5.2 | 0.00 | 0.81 | 0.78 | 72 | 1012.0 |
| 20260902191516 | 84 | 135 | 2.6 | 6.1 | 0.00 | 0.81 | 0.78 | 72 | 1012.1 |
| 20260902190557 | 84 | 158 | 0.9 | 2.6 | 0.00 | 0.81 | 0.78 | 75 | 1012.1 |
| 20260902185517 | 84 | 158 | 2.6 | 4.3 | 0.00 | 0.81 | 0.78 | 74 | 1012.2 |
| 20260902184516 | 83 | 203 | 1.7 | 3.5 | 0.00 | 0.81 | 0.78 | 77 | 1012.2 |
| 20260902183517 | 83 | 180 | 2.6 | 5.2 | 0.00 | 0.81 | 0.78 | 76 | 1012.4 |
| 20260902182516 | 82 | 158 | 1.7 | 2.6 | 0.00 | 0.81 | 0.78 | 77 | 1012.5 |
| 20260902181517 | 83 | 135 | 3.5 | 7.0 | 0.00 | 0.81 | 0.78 | 75 | 1012.6 |
| 20260902180516 | 82 | 90 | 1.7 | 6.1 | 0.00 | 0.81 | 0.78 | 74 | 1012.6 |
| 20260902175516 | 81 | 158 | 3.5 | 10.4 | 0.00 | 0.81 | 0.78 | 77 | 1012.7 |
| 20260902174516 | 81 | 158 | 4.3 | 8.7 | 0.00 | 0.81 | 0.78 | 76 | 1013.0 |
| 20260902173517 | 81 | 113 | 2.6 | 5.2 | 0.00 | 0.81 | 0.78 | 78 | 1013.0 |
| 20260902172516 | 80 | 135 | 2.6 | 5.2 | 0.00 | 0.81 | 0.78 | 76 | 1013.3 |
| 20260902171516 | 80 | 135 | 0.9 | 2.6 | 0.00 | 0.81 | 0.78 | 80 | 1013.3 |
| 20260902170516 | 79 | 90 | 2.6 | 5.2 | 0.00 | 0.81 | 0.78 | 80 | 1013.1 |
| 20260902165515 | 79 | 45 | 3.5 | 5.2 | 0.00 | 0.81 | 0.78 | 81 | 1013.0 |
| 20260902164516 | 78 | 68 | 1.7 | 3.5 | 0.00 | 0.81 | 0.78 | 82 | 1013.1 |
| 20260902163516 | 78 | 90 | 1.7 | 4.3 | 0.00 | 0.81 | 0.78 | 82 | 1013.5 |
| 20260902162515 | 77 | 158 | 1.7 | 3.5 | 0.00 | 0.81 | 0.78 | 85 | 1013.6 |
| 20260902161556 | 76 | 180 | 3.5 | 5.2 | 0.00 | 0.81 | 0.78 | 85 | 1013.5 |
| 20260902160516 | 75 | 180 | 3.5 | 6.1 | 0.00 | 0.81 | 0.78 | 86 | 1013.7 |
| 20260902155515 | 75 | 180 | 2.6 | 4.3 | 0.00 | 0.81 | 0.78 | 87 | 1013.6 |
| 20260902154516 | 74 | 45 | 1.7 | 4.3 | 0.00 | 0.81 | 0.78 | 88 | 1013.5 |
| 20260902153515 | 73 | 45 | 0.9 | 3.5 | 0.00 | 0.81 | 0.78 | 89 | 1013.5 |
| 20260902152515 | 73 | 45 | 2.6 | 4.3 | 0.00 | 0.81 | 0.78 | 88 | 1013.6 |
| 20260902151536 | 73 | 45 | 2.6 | 4.3 | 0.00 | 0.81 | 0.78 | 90 | 1013.4 |
| 20260902150515 | 73 | 68 | 2.6 | 4.3 | 0.00 | 0.81 | 0.78 | 90 | 1013.2 |
| 20260902145516 | 73 | 90 | 1.7 | 3.5 | 0.00 | 0.81 | 0.78 | 89 | 1012.9 |
| 20260902144517 | 73 | 90 | 1.7 | 3.5 | 0.00 | 0.81 | 0.78 | 90 | 1012.8 |
| 20260902143517 | 72 | 113 | 2.6 | 5.2 | 0.00 | 0.81 | 0.78 | 92 | 1012.7 |
| 20260902142517 | 71 | 113 | 1.7 | 7.0 | 0.00 | 0.81 | 0.78 | 92 | 1012.8 |
| 20260902141517 | 71 | 90 | 2.6 | 5.2 | 0.00 | 0.81 | 0.78 | 94 | 1012.6 |
| 20260902140518 | 71 | 113 | 3.5 | 6.1 | 0.00 | 0.81 | 0.78 | 95 | 1012.8 |
| 20260902135517 | 70 | 113 | 4.3 | 7.8 | 0.00 | 0.81 | 0.78 | 96 | 1012.6 |
| 20260902134517 | 69 | 90 | 2.6 | 6.1 | 0.00 | 0.81 | 0.78 | 97 | 1012.5 |
| 20260902133517 | 68 | 90 | 2.6 | 5.2 | 0.00 | 0.81 | 0.78 | 98 | 1012.5 |
| 20260902132517 | 68 | 68 | 2.6 | 4.3 | 0.00 | 0.81 | 0.78 | 98 | 1012.6 |
| 20260902131517 | 67 | 90 | 2.6 | 5.2 | 0.00 | 0.81 | 0.78 | 98 | 1012.6 |
| 20260902130517 | 67 | 113 | 2.6 | 3.5 | 0.00 | 0.81 | 0.78 | 98 | 1012.8 |
| 20260902125518 | 66 | 0.0 | 1.7 | 0.00 | 0.81 | 0.78 | 98 | 1012.8 | |
| 20260902124517 | 66 | 0.0 | 0.0 | 0.00 | 0.81 | 0.78 | 98 | 1012.8 | |
| 20260902123517 | 65 | 0.0 | 0.0 | 0.00 | 0.81 | 0.78 | 98 | 1012.6 | |
| 20260902122518 | 65 | 0.0 | 0.0 | 0.00 | 0.81 | 0.78 | 98 | 1012.5 | |
| 20260902121537 | 65 | 0.0 | 0.0 | 0.00 | 0.81 | 0.78 | 98 | 1012.6 | |
| 20260902120538 | 65 | 113 | 1.7 | 3.5 | 0.00 | 0.81 | 0.78 | 98 | 1012.3 |
| 20260902115517 | 65 | 113 | 0.9 | 2.6 | 0.00 | 0.81 | 0.78 | 98 | 1012.6 |
| 20260902114517 | 65 | 113 | 0.9 | 1.7 | 0.00 | 0.81 | 0.78 | 98 | 1012.4 |
| 20260902113517 | 65 | 113 | 0.9 | 2.6 | 0.00 | 0.81 | 0.78 | 98 | 1012.3 |
| 20260902112517 | 65 | 113 | 1.7 | 2.6 | 0.00 | 0.82 | 0.78 | 98 | 1012.4 |
| 20260902111517 | 65 | 113 | 1.7 | 3.5 | 0.00 | 0.82 | 0.78 | 97 | 1012.4 |
| 20260902110517 | 65 | 113 | 0.9 | 1.7 | 0.00 | 0.82 | 0.78 | 98 | 1012.3 |
| 20260902105538 | 66 | 113 | 1.7 | 2.6 | 0.00 | 0.82 | 0.78 | 98 | 1012.5 |
| 20260902104517 | 66 | 113 | 1.7 | 3.5 | 0.00 | 0.82 | 0.78 | 97 | 1012.5 |
| 20260902103538 | 66 | 113 | 2.6 | 5.2 | 0.00 | 0.82 | 0.78 | 97 | 1012.8 |
| 20260902102518 | 66 | 113 | 1.7 | 3.5 | 0.00 | 0.82 | 0.78 | 97 | 1013.1 |
| 20260902101557 | 66 | 113 | 1.7 | 3.5 | 0.00 | 0.82 | 0.78 | 97 | 1013.4 |
| 20260902100518 | 66 | 113 | 1.7 | 3.5 | 0.00 | 0.82 | 0.78 | 97 | 1013.4 |
| 20260902095538 | 66 | 135 | 1.7 | 3.5 | 0.00 | 0.82 | 0.78 | 97 | 1013.3 |
| 20260902094517 | 66 | 135 | 2.6 | 4.3 | 0.00 | 0.82 | 0.78 | 97 | 1013.4 |
| 20260902093517 | 66 | 135 | 1.7 | 2.6 | 0.00 | 0.82 | 0.78 | 97 | 1013.5 |
| 20260902092517 | 66 | 113 | 1.7 | 6.1 | 0.00 | 0.82 | 0.78 | 97 | 1013.0 |
| 20260902091516 | 66 | 158 | 3.5 | 5.2 | 0.00 | 0.82 | 0.78 | 97 | 1013.0 |
| 20260902090557 | 66 | 158 | 3.5 | 5.2 | 0.00 | 0.82 | 0.78 | 97 | 1012.9 |
| 20260902085517 | 66 | 180 | 3.5 | 7.0 | 0.00 | 0.82 | 0.78 | 97 | 1013.0 |
| 20260902084517 | 66 | 180 | 4.3 | 7.8 | 0.00 | 0.82 | 0.78 | 97 | 1013.5 |
| 20260902083517 | 66 | 203 | 4.3 | 6.1 | 0.00 | 0.82 | 0.78 | 97 | 1014.0 |
| 20260902082517 | 66 | 0.0 | 0.0 | 0.00 | 0.82 | 0.78 | 97 | 1013.2 | |
| 20260902081516 | 66 | 0.0 | 0.0 | 0.00 | 0.82 | 0.78 | 97 | 1013.0 | |
| 20260902080518 | 66 | 180 | 0.9 | 2.6 | 0.00 | 0.82 | 0.78 | 97 | 1013.0 |
| 20260902075517 | 66 | 180 | 2.6 | 4.3 | 0.00 | 0.82 | 0.78 | 97 | 1013.0 |
| 20260902074517 | 66 | 180 | 4.3 | 6.1 | 0.00 | 0.82 | 0.78 | 97 | 1013.0 |
| 20260902073516 | 67 | 180 | 3.5 | 7.0 | 0.01 | 0.82 | 0.78 | 97 | 1013.0 |
| 20260902072557 | 67 | 180 | 6.1 | 9.6 | 0.01 | 0.82 | 0.78 | 97 | 1012.7 |
| 20260902071516 | 67 | 45 | 3.5 | 9.6 | 0.01 | 0.82 | 0.78 | 97 | 1012.8 |
| 20260902070516 | 67 | 45 | 5.2 | 9.6 | 0.02 | 0.82 | 0.78 | 97 | 1011.6 |
| 20260902065516 | 67 | 45 | 5.2 | 7.8 | 0.02 | 0.82 | 0.78 | 97 | 1011.2 |
| 20260902064517 | 67 | 90 | 6.1 | 8.7 | 0.02 | 0.82 | 0.78 | 97 | 1010.9 |
| 20260902063517 | 67 | 68 | 7.0 | 11.3 | 0.02 | 0.81 | 0.77 | 96 | 1011.5 |
| 20260902062516 | 67 | 68 | 7.8 | 12.2 | 0.03 | 0.81 | 0.77 | 96 | 1011.7 |
| 20260902061516 | 67 | 45 | 7.8 | 11.3 | 0.16 | 0.81 | 0.77 | 96 | 1012.3 |
| 20260902060516 | 67 | 90 | 4.3 | 8.7 | 0.74 | 0.80 | 0.76 | 96 | 1012.8 |
| 20260902055516 | 67 | 90 | 3.5 | 7.8 | 0.78 | 0.80 | 0.76 | 95 | 1013.4 |
| 20260902054537 | 68 | 90 | 2.6 | 6.1 | 0.79 | 0.80 | 0.76 | 95 | 1013.3 |
| 20260902053524 | 68 | 0 | 3.5 | 7.0 | 0.78 | 0.79 | 0.75 | 95 | 1013.9 |
| 20260902052550 | 68 | 248 | 8.7 | 16.5 | 0.77 | 0.78 | 0.74 | 95 | 1015.2 |
| 20260902051518 | 68 | 203 | 20.0 | 31.3 | 0.64 | 0.65 | 0.61 | 93 | 1016.5 |
| 20260902050539 | 72 | 225 | 13.9 | 26.1 | 0.05 | 0.06 | 0.02 | 94 | 1018.0 |
| 20260902045538 | 72 | 135 | 4.3 | 13.0 | 0.01 | 0.02 | 0.02 | 93 | 1013.7 |
| 20260902044519 | 72 | 113 | 3.5 | 7.0 | 0.00 | 0.01 | 0.01 | 93 | 1013.6 |
| 20260902043517 | 72 | 113 | 3.5 | 7.0 | 0.00 | 0.01 | 0.01 | 94 | 1013.4 |
| 20260902042518 | 71 | 45 | 2.6 | 4.3 | 0.00 | 0.01 | 0.01 | 95 | 1013.3 |
| 20260902041517 | 71 | 68 | 2.6 | 4.3 | 0.00 | 0.01 | 0.01 | 95 | 1013.4 |
| 20260902040517 | 72 | 68 | 0.9 | 2.6 | 0.00 | 0.01 | 0.01 | 95 | 1014.0 |
| 20260902035517 | 71 | 68 | 0.9 | 2.6 | 0.00 | 0.01 | 0.01 | 95 | 1013.6 |
| 20260902034517 | 71 | 68 | 0.9 | 2.6 | 0.00 | 0.01 | 0.01 | 95 | 1013.3 |
| 20260902033517 | 71 | 68 | 1.7 | 3.5 | 0.00 | 0.01 | 0.01 | 95 | 1013.5 |
| 20260902032517 | 71 | 90 | 2.6 | 6.1 | 0.00 | 0.01 | 0.01 | 95 | 1013.0 |
| 20260902031517 | 71 | 68 | 0.9 | 2.6 | 0.00 | 0.01 | 0.01 | 95 | 1013.5 |
| 20260902030538 | 71 | 68 | 2.6 | 3.5 | 0.00 | 0.01 | 0.01 | 95 | 1013.3 |
| 20260902025537 | 71 | 45 | 2.6 | 3.5 | 0.00 | 0.01 | 0.01 | 95 | 1013.7 |
| 20260902024517 | 72 | 45 | 3.5 | 4.3 | 0.00 | 0.01 | 0.01 | 95 | 1013.8 |
| 20260902023517 | 71 | 45 | 2.6 | 3.5 | 0.00 | 0.01 | 0.01 | 95 | 1013.8 |